Location: Brno
(49.2000°N, 16.6330°E)
Time: 12:13:21
(UTC+02:00)

BREEZE M DEB (TANK) - Visible Passes

Search period start: 22 September 2014 00:00
Search period end: 02 October 2014 00:00
Orbit: 304 x 12197 km, 49.5° (Epoch: 19 September)

Date Brightness Start Highest point End Pass type
(mag) Time Alt. Az. Time Alt. Az. Time Alt. Az.
23 Sep 2.1 06:01:33 10° W 06:03:35 33° SSW 06:06:06 10° SE visible
24 Sep 1.6 05:34:04 25° W 05:35:03 44° SSW 05:37:26 10° SE visible
25 Sep 1.2 05:06:34 59° S 05:06:34 59° S 05:08:46 10° ESE visible
26 Sep 3.2 04:39:03 24° ESE 04:39:03 24° ESE 04:40:07 10° ESE visible
27 Sep 7.3 23:21:59 10° SSW 23:23:39 12° SSW 23:23:39 12° SSW visible
28 Sep 7.1 22:51:56 10° SSW 22:56:30 16° SSW 22:56:30 16° SSW visible
29 Sep 6.9 22:21:58 10° SSW 22:29:17 19° SSW 22:29:17 19° SSW visible
30 Sep 6.8 21:52:09 10° SSW 22:02:03 21° S 22:02:03 21° S visible
01 Oct 3.7 06:17:25 10° SW 06:18:10 11° SSW 06:19:00 10° S visible
01 Oct 6.7 21:22:34 10° S 21:34:46 22° SSE 21:34:46 22° SSE visible
